Location: *
(42.3377°N, 71.0868°W)
Time: 04:04:20
(UTC+00:00)

Cosmos 1726 - Pass Details

Date: 09 April 2020
Orbit: 482 x 500 km, 82.5° (Epoch: 30 May)

Event Time Altitude Azimuth Distance (km) Brightness Sun altitude
Rises 23:42:55 0° 183° (S) 2,579 5.6 -5.0°
Reaches altitude 10° 23:45:01 10° 182° (S) 1,700 4.7 -5.3°
Maximum altitude 23:48:44 78° 97° (E) 517 2.1 -6.0°
Drops below altitude 10° 23:52:29 10° 11° (N) 1,710 4.9 -6.7°
Sets 23:54:36 0° 10° (N) 2,596 5.9 -7.0°
